SL-16 R/B (16182 NORAD) Tracking and Keplerian Element Data

This shows tracking and keplerian element data for the satellite.

Feedback or suggestion? Click here.




ElementValue
Catalog16182
NameSL-16 R/B
Epoch Orbit3076
Epoch Day34.95061081
Epoch Year2025
RAAN259.9626
Inclination71.0012
Eccentricity0.0006549
Argument of Perigee161.3082
Mean Anonmoly293.3218
Mean Motion14.16520409
Decay Rate2.38E-06
L11 16182U 85097B 25034.95061081 .00000238 00000+0 14368-3 0 9998
L22 16182 71.0012 259.9626 0006549 161.3082 293.3218 14.16520409 30761



Live tracking and technical data element details for SL-16 R/B (NORAD 16182). SL-16 R/B can be tracked NOW for your location showing map with azimuth and elevation plus other details from your city location.







IsCatalogInMostPopularTable: catalog: 16182, numindb: 413
Update: records affected: 1



GetName: 16182 SL-16 R/B

Hit Count: updated at: Sat, 17 May 2025 09:21:28 GMT